Regional Weather Roundup
Issued by NWS

Home | Current Version | Previous Version | Graphics & Text | Print | Product List | Glossary On
Versions: 1 2 3 4 5 6 7 8 9 10 11 12 13 14 15 16 17 18 19 20 21 22 23 24 25 26 27 28
000
ASUS45 KSLC 141010
RWRUT

UTAH REGIONAL WEATHER ROUNDUP
NATIONAL WEATHER SERVICE SALT LAKE CITY UT
300 AM MST THU DEC 14 2017

UTZ001>011-023>025-141100-

NORTHERN UTAH

CITY           SKY/WX    TMP DP  RH WIND       PRES   REMARKS
BRIGHAM CITY   CLEAR     21  19  90 CALM      30.35S
HILL AFB       CLEAR     24  23  96 E5        30.33R FOG     WCI  18
LOGAN          CLEAR     19  12  74 VRB3      30.36R
OGDEN          CLEAR     22  21  96 E3        30.33R FOG
SALT LAKE CITY PTCLDY    25  23  92 N10       30.34R FOG     WCI  15
TOOELE VALLEY  CLEAR     18  18 100 CALM      30.36R FOG
WENDOVER       NOT AVBL
HEBER CITY       N/A     32  23  69 E9G17     30.24R WCI  24
WEST JORDAN    PTCLDY    24  24 100 NW3       30.33R

$$

UTZ011>015-024>027-141100-

CENTRAL/NORTHEAST UTAH

CITY           SKY/WX    TMP DP  RH WIND       PRES   REMARKS
PROVO AIRPORT  CLOUDY    29  26  89 SE5       30.31R WCI  24
MOAB/CANYONLAN CLOUDY    41  27  57 NE10      30.11R
DELTA          PTCLDY    23  19  86 NE6       30.31R WCI  16
PRICE          CLEAR     34  25  69 NE13      30.16R WCI  25
ROOSEVELT      CLOUDY    27  14  59 W3        30.24S
VERNAL         CLOUDY    34  21  59 NE12      30.22R WCI  25

$$

UTZ013>016-019>022-027-141100-

SOUTHERN UTAH

CITY           SKY/WX    TMP DP  RH WIND       PRES   REMARKS
BRYCE CANYON     N/A    N/A N/A N/A MISG      30.13R
CEDAR CITY     CLOUDY    30  14  51 NE5       30.20S WCI  25
MILFORD        MOCLDY    28  16  60 N14       30.25R WCI  17
HANKSVILLE     CLOUDY    39  14  35 N8        30.15R WCI  34
BLANDING         N/A     38  22  54 S3        30.09S

$$

REGIONAL REPORTS     COLORADO/ARIZONA

CITY           SKY/WX    TMP DP  RH WIND       PRES   REMARKS
CRAIG, CO      CLOUDY    28  23  81 CALM      30.16R
GRAND JUNCTION CLOUDY    36  34  92 NE5       30.12R WCI  32
RIFLE, CO      CLOUDY    33  28  81 CALM      30.12R
MONTROSE, CO   CLOUDY    35  28  75 NE6       30.11R WCI  30
CORTEZ, CO     CLOUDY    38  31  76 NW5       30.02R WCI  34
COLORADO CITY    N/A     23   0  36 CALM      30.12R
PAGE, AZ       CLOUDY    38  13  35 SE5       30.04R WCI  34
GRAND CANYON   MOCLDY    20   2  45 NE5       30.06S WCI  13
KINGMAN, AZ    PTCLDY    33   5  30 CALM      30.01R
FLAGSTAFF, AZ  MOCLDY    36   3  25 VRB3      30.03F

$$

REGIONAL REPORTS    NEVADA/IDAHO/WYOMING

CITY           SKY/WX    TMP DP  RH WIND       PRES   REMARKS
LAS VEGAS, NV  CLEAR     46   8  21 S7        30.04R
ELY, NY        PTCLDY    28  15  58 N16       30.30R WCI  16
ELKO, NV       MOCLDY    19  15  84 E3        30.36S
POCATELLO, ID  CLOUDY    20  19  96 SW8       30.44R FOG     WCI  10
BURLEY, ID     CLOUDY    23  20  88 CALM      30.45R
FORT BRIDGER,  CLOUDY    26  26  97 W6        30.27F WCI  20
EVANSTON, WY   CLOUDY    23  21  92 N7        30.26R WCI  15
ROCK SPRINGS,  CLOUDY    23  19  85 VRB3      30.24S

$$




USA.gov is the U.S. government's official web portal to all federal, state and local government web resources and services.